• In Kazakhstan
  • List of Countries
  • For 7 days
  • Water Temperature
  • Weather Map
  • News
  • Weather Widgets
  • user-avatar
    Login

    Hourly Weather Bugojno

    Today, 21 October, Monday

    Time Temperature Precipitation Wind Pressure Humidity
    00:00 +13°C° 0 mm 2 mps 714 mmHg 82%
    01:00 +13°C° 0 mm 2 mps 714 mmHg 80%
    02:00 +13°C° 0 mm 2 mps 714 mmHg 78%
    03:00 +13°C° 0 mm 1 mps 714 mmHg 75%
    04:00 +13°C° 0 mm 1 mps 714 mmHg 73%
    05:00 +13°C° 0 mm 1 mps 715 mmHg 71%
    06:00 +13°C° 0 mm 1 mps 715 mmHg 68%
    07:00 +14°C° 0 mm 1 mps 715 mmHg 65%
    08:00 +18°C° 0 mm 1 mps 715 mmHg 58%
    09:00 +21°C° 0 mm 1 mps 716 mmHg 50%
    10:00 +24°C° 0 mm 1 mps 716 mmHg 42%
    11:00 +23°C° 0 mm 0 mps 716 mmHg 40%
    12:00 +24°C° 0 mm 0 mps 717 mmHg 39%
    13:00 +25°C° 0 mm 0 mps 717 mmHg 38%
    14:00 +24°C° 0 mm 0 mps 716 mmHg 44%
    15:00 +22°C° 0 mm 0 mps 716 mmHg 50%
    16:00 +21°C° 0 mm 0 mps 716 mmHg 56%
    17:00 +19°C° 0 mm 0 mps 716 mmHg 60%
    18:00 +17°C° 0 mm 0 mps 716 mmHg 63%
    19:00 +16°C° 0 mm 0 mps 716 mmHg 67%
    20:00 +15°C° 0 mm 0 mps 716 mmHg 66%
    21:00 +15°C° 0 mm 0 mps 716 mmHg 66%
    22:00 +15°C° 0 mm 0 mps 716 mmHg 66%
    23:00 +15°C° 0 mm 0 mps 716 mmHg 65%

    Tomorrow, 22 October, Tuesday

    Time Temperature Precipitation Wind Pressure Humidity
    00:00 +14°C° 0 mm 0 mps 715 mmHg 64%
    01:00 +15°C° 0 mm 1 mps 715 mmHg 63%
    02:00 +14°C° 0 mm 0 mps 715 mmHg 63%
    03:00 +14°C° 0 mm 0 mps 715 mmHg 62%
    04:00 +13°C° 0 mm 0 mps 715 mmHg 61%
    05:00 +14°C° 0 mm 0 mps 715 mmHg 61%
    06:00 +14°C° 0 mm 0 mps 715 mmHg 60%
    07:00 +14°C° 0 mm 0 mps 715 mmHg 60%
    08:00 +19°C° 0 mm 1 mps 716 mmHg 54%
    09:00 +22°C° 0 mm 1 mps 716 mmHg 48%
    10:00 +24°C° 0 mm 1 mps 716 mmHg 42%
    11:00 +25°C° 0 mm 1 mps 716 mmHg 40%
    12:00 +26°C° 0 mm 1 mps 716 mmHg 38%
    13:00 +27°C° 0 mm 1 mps 716 mmHg 35%
    14:00 +25°C° 0 mm 1 mps 716 mmHg 41%
    15:00 +24°C° 0 mm 1 mps 715 mmHg 47%
    16:00 +23°C° 0 mm 1 mps 715 mmHg 53%
    17:00 +21°C° 0 mm 1 mps 715 mmHg 57%
    18:00 +17°C° 0 mm 0 mps 715 mmHg 61%
    19:00 +15°C° 0 mm 0 mps 715 mmHg 64%
    20:00 +15°C° 0 mm 0 mps 715 mmHg 65%
    21:00 +14°C° 0 mm 0 mps 715 mmHg 65%
    22:00 +14°C° 0 mm 0 mps 715 mmHg 65%
    23:00 +14°C° 0 mm 0 mps 715 mmHg 64%

    Day after tomorrow, 23 October, Wednesday

    Time Temperature Precipitation Wind Pressure Humidity
    00:00 +14°C° 0 mm 0 mps 715 mmHg 63%
    01:00 +15°C° 0 mm 1 mps 714 mmHg 62%
    02:00 +14°C° 0 mm 0 mps 714 mmHg 60%
    03:00 +13°C° 0 mm 0 mps 714 mmHg 58%
    04:00 +13°C° 0 mm 0 mps 714 mmHg 56%
    05:00 +15°C° 0 mm 1 mps 714 mmHg 56%
    06:00 +15°C° 0 mm 1 mps 714 mmHg 56%
    07:00 +15°C° 0 mm 1 mps 714 mmHg 55%
    08:00 +19°C° 0 mm 1 mps 714 mmHg 50%
    09:00 +22°C° 0 mm 1 mps 715 mmHg 45%
    10:00 +25°C° 0 mm 1 mps 715 mmHg 40%
    11:00 +25°C° 0 mm 1 mps 715 mmHg 39%
    12:00 +26°C° 0 mm 1 mps 715 mmHg 38%
    13:00 +27°C° 0 mm 1 mps 715 mmHg 36%
    14:00 +26°C° 0 mm 1 mps 714 mmHg 42%
    15:00 +24°C° 0 mm 1 mps 714 mmHg 49%
    16:00 +21°C° 0 mm 0 mps 713 mmHg 55%
    17:00 +21°C° 0 mm 1 mps 713 mmHg 58%
    18:00 +19°C° 0 mm 1 mps 713 mmHg 61%
    19:00 +18°C° 0 mm 1 mps 713 mmHg 64%
    20:00 +16°C° 0 mm 1 mps 713 mmHg 64%
    21:00 +16°C° 0 mm 1 mps 713 mmHg 64%
    22:00 +15°C° 0 mm 1 mps 713 mmHg 64%
    23:00 +15°C° 0 mm 1 mps 712 mmHg 63%

    24 October, Thursday

    Time Temperature Precipitation Wind Pressure Humidity
    00:00 +15°C° 0 mm 1 mps 712 mmHg 62%
    01:00 +14°C° 0 mm 1 mps 712 mmHg 61%
    02:00 +14°C° 0 mm 1 mps 712 mmHg 59%
    03:00 +14°C° 0 mm 1 mps 711 mmHg 57%
    04:00 +14°C° 0 mm 1 mps 711 mmHg 56%
    05:00 +14°C° 0 mm 1 mps 711 mmHg 55%
    06:00 +14°C° 0 mm 1 mps 711 mmHg 55%
    07:00 +14°C° 0 mm 1 mps 711 mmHg 55%
    08:00 +18°C° 0 mm 1 mps 711 mmHg 49%
    09:00 +21°C° 0 mm 1 mps 711 mmHg 44%
    10:00 +23°C° 0 mm 1 mps 712 mmHg 38%
    11:00 +24°C° 0 mm 1 mps 712 mmHg 36%
    12:00 +25°C° 0 mm 1 mps 712 mmHg 34%
    13:00 +26°C° 0 mm 1 mps 711 mmHg 33%
    14:00 +24°C° 0 mm 1 mps 711 mmHg 38%
    15:00 +23°C° 0 mm 1 mps 711 mmHg 44%
    16:00 +21°C° 0 mm 1 mps 710 mmHg 50%
    17:00 +20°C° 0 mm 1 mps 710 mmHg 53%
    18:00 +18°C° 0 mm 1 mps 710 mmHg 56%
    19:00 +15°C° 0 mm 1 mps 710 mmHg 59%
    20:00 +15°C° 0 mm 1 mps 710 mmHg 58%
    21:00 +14°C° 0 mm 1 mps 710 mmHg 58%
    22:00 +14°C° 0 mm 1 mps 710 mmHg 57%
    23:00 +14°C° 0 mm 1 mps 710 mmHg 56%

    25 October, Friday

    Time Temperature Precipitation Wind Pressure Humidity
    00:00 +13°C° 0 mm 1 mps 710 mmHg 55%
    01:00 +13°C° 0 mm 1 mps 710 mmHg 54%
    02:00 +13°C° 0 mm 1 mps 710 mmHg 54%
    03:00 +12°C° 0 mm 1 mps 710 mmHg 54%
    04:00 +12°C° 0 mm 1 mps 710 mmHg 54%
    05:00 +11°C° 0 mm 0 mps 710 mmHg 53%
    06:00 +12°C° 0 mm 0 mps 710 mmHg 53%
    07:00 +12°C° 0 mm 0 mps 711 mmHg 53%
    08:00 +15°C° 0 mm 0 mps 711 mmHg 49%
    09:00 +17°C° 0 mm 0 mps 712 mmHg 44%
    10:00 +20°C° 0 mm 0 mps 713 mmHg 39%
    11:00 +23°C° 0 mm 1 mps 713 mmHg 38%
    12:00 +23°C° 0 mm 1 mps 713 mmHg 37%
    13:00 +24°C° 0 mm 1 mps 713 mmHg 36%
    14:00 +23°C° 0 mm 1 mps 712 mmHg 44%
    15:00 +21°C° 0 mm 1 mps 712 mmHg 51%
    16:00 +19°C° 0 mm 2 mps 712 mmHg 58%
    17:00 +18°C° 0 mm 1 mps 712 mmHg 64%
    18:00 +15°C° 0 mm 1 mps 712 mmHg 70%
    19:00 +14°C° 0 mm 1 mps 712 mmHg 76%
    20:00 +13°C° 0 mm 1 mps 712 mmHg 79%
    21:00 +13°C° 0 mm 1 mps 712 mmHg 81%
    22:00 +12°C° 0 mm 1 mps 712 mmHg 83%
    23:00 +12°C° 0 mm 1 mps 712 mmHg 83%

    26 October, Saturday

    Time Temperature Precipitation Wind Pressure Humidity
    00:00 +11°C° 0 mm 0 mps 713 mmHg 84%
    01:00 +10°C° 0 mm 0 mps 713 mmHg 84%
    02:00 +10°C° 0 mm 0 mps 713 mmHg 84%
    03:00 +10°C° 0 mm 0 mps 713 mmHg 83%
    04:00 +10°C° 0 mm 0 mps 712 mmHg 83%
    05:00 +10°C° 0 mm 0 mps 713 mmHg 80%
    06:00 +11°C° 0 mm 0 mps 713 mmHg 77%
    07:00 +11°C° 0 mm 0 mps 713 mmHg 75%
    08:00 +14°C° 0 mm 0 mps 714 mmHg 66%
    09:00 +17°C° 0 mm 0 mps 714 mmHg 57%
    10:00 +20°C° 0 mm 0 mps 715 mmHg 48%
    11:00 +21°C° 0 mm 0 mps 715 mmHg 45%
    12:00 +21°C° 0 mm 0 mps 715 mmHg 43%
    13:00 +24°C° 0 mm 1 mps 715 mmHg 40%
    14:00 +23°C° 0 mm 1 mps 715 mmHg 47%
    15:00 +20°C° 0 mm 0 mps 714 mmHg 53%
    16:00 +18°C° 0 mm 0 mps 714 mmHg 59%
    17:00 +17°C° 0 mm 0 mps 714 mmHg 64%
    18:00 +15°C° 0 mm 0 mps 714 mmHg 68%
    19:00 +13°C° 0 mm 0 mps 714 mmHg 73%
    20:00 +13°C° 0 mm 0 mps 714 mmHg 73%
    21:00 +13°C° 0 mm 0 mps 714 mmHg 73%
    22:00 +12°C° 0 mm 0 mps 715 mmHg 74%
    23:00 +12°C° 0 mm 0 mps 715 mmHg 74%
    Show more